Location: Spruce Knob
(38.6995°N, 79.5330°W)
Time: 20:20:27
(UTC-04:00)

BUGSAT 1 - Pass Details

Date: 28 March 2023
Orbit: 549 x 588 km, 98.1° (Epoch: 04 June)

Event Time Altitude Azimuth Distance (km) Brightness Sun altitude
Rises 18:32:49 0° 140° (SE) 2,807 ? 11.8°
Reaches altitude 10° 18:35:11 10° 129° (SE) 1,907 ? 11.3°
Maximum altitude 18:38:44 28° 70° (ENE) 1,104 ? 10.6°
Drops below altitude 10° 18:42:17 10° 11° (N) 1,905 ? 10.0°
Sets 20:19:32 0° 331° (NNW) 2,805 ? -8.9°
